Temp
4 4 3 3 3 3 3 3 3 3 2 2 2 2 2 1 1 1 1 1 1 1 1 2 2 2 2 2 2 2 2 2 2 2 2 2 2 2 2 3 3 3 4 4 5 5 6 7 7 7 7 8 9 9 10 10 10 11 11 11 11 12 12 12 12 12 12 13 13
4 4 3 3 3 2 2 3 3 2 2 2 2 1 1 1 0 0 0 0 0 1 1 1 1 1 1 1 1 1 1 1 2 2 2 2 2 2 2 3 3 3 3 4 4 5 5 6 6 7 7 8 9 9 9 10 10 10 10 11 11 11 12 12 12 12 12 12 13
4 4 3 3 3 3 3 3 3 2 2 2 2 1 1 0 -0 -0 -0 -0 0 0 0 1 1 1 1 1 1 1 1 1 1 2 2 2 2 2 2 3 3 3 3 4 4 5 5 6 6 6 7 7 8 9 9 10 10 10 10 11 11 11 11 12 12 12 12 12 12
4 4 3 3 3 3 3 3 2 2 2 2 1 1 0 -0 -0 -1 -0 -0 -0 0 0 1 1 1 1 1 1 1 1 1 1 1 2 2 2 2 2 3 3 3 3 3 4 4 5 5 6 6 6 7 8 9 9 10 10 10 10 10 11 11 11 11 12 12 12 12 12
4 4 3 3 3 3 3 2 2 2 2 1 1 1 0 -0 -0 -1 -1 -0 -0 0 0 0 0 0 1 1 1 1 1 1 1 1 2 2 2 2 2 3 3 3 3 3 4 4 5 5 5 6 6 7 8 9 9 9 9 9 9 10 10 11 11 11 11 12 12 12 12
4 4 3 3 3 3 2 2 2 2 2 1 1 0 0 -0 -0 -1 -1 -0 -0 -0 0 0 0 0 1 1 1 1 1 1 1 1 1 2 2 2 2 3 3 3 3 3 4 4 5 5 5 6 6 7 8 8 9 9 9 9 9 10 10 11 11 11 11 11 12 12 12
4 3 3 3 3 2 2 2 2 2 1 1 1 0 0 -0 -1 -1 -1 -1 -1 -0 -0 0 0 1 1 1 1 1 1 1 1 1 1 1 2 2 2 3 3 3 3 3 4 4 4 5 5 6 6 7 8 8 9 9 9 9 9 10 10 10 11 11 11 11 12 12 12
4 4 3 3 3 2 2 2 2 2 1 1 1 1 0 -0 -1 -1 -1 -1 -1 -0 -0 0 0 1 1 1 1 1 1 1 1 1 1 1 2 2 2 2 3 3 3 3 4 4 4 5 5 6 6 7 7 8 9 9 9 9 9 9 10 10 11 11 11 11 11 11 12
4 4 3 3 3 2 2 2 2 1 1 1 1 1 0 -0 -1 -1 -1 -1 -1 -0 -0 0 0 0 1 1 1 1 1 1 1 1 1 1 1 2 2 2 2 2 3 3 3 4 4 4 5 6 6 7 7 8 8 9 9 9 9 9 10 10 11 11 11 11 11 11 11
3 3 3 3 2 2 2 2 1 1 1 1 1 0 -0 -0 -1 -1 -1 -1 -0 -0 -0 0 0 0 1 1 1 1 1 1 1 1 1 1 1 1 2 2 2 2 3 3 3 4 4 4 5 6 6 7 7 7 8 9 9 9 9 9 9 10 11 11 11 11 11 11 11
3 3 3 2 2 2 2 1 1 1 1 1 0 0 -0 -1 -1 -1 -1 -1 -1 -0 -0 -0 0 0 0 1 1 1 1 1 1 1 1 1 1 1 2 2 2 2 2 3 3 3 4 4 5 5 6 6 7 7 8 8 9 9 9 9 9 10 10 11 11 11 11 11 11
3 3 3 2 2 2 1 1 1 1 1 1 0 0 -0 -1 -1 -1 -1 -1 -0 -0 -0 -0 0 0 0 0 0 1 1 1 1 1 1 1 1 1 1 2 2 2 3 3 3 3 4 4 5 5 6 6 6 7 7 8 8 9 9 9 9 9 10 10 11 11 11 11 11
3 2 2 2 2 1 1 1 1 1 1 1 1 0 -0 -1 -1 -1 -1 -0 -0 -0 -0 -0 -0 0 0 0 0 0 0 1 1 1 1 1 1 1 1 2 2 3 3 3 3 4 4 4 4 5 5 6 6 7 7 8 8 8 9 9 9 9 9 10 10 10 11 11 11
2 2 2 2 2 1 1 1 1 1 1 1 1 0 0 -0 -0 -0 -0 -0 -0 -0 -0 -0 -0 -0 -0 0 0 0 0 1 1 1 1 1 1 1 1 2 2 3 3 3 3 3 4 4 4 4 5 5 6 6 7 7 8 8 8 8 8 9 9 9 10 10 10 10 10
2 2 2 2 1 1 1 1 1 1 1 1 1 0 0 0 -0 -0 -0 -0 -0 -0 -0 -0 -0 -0 -0 0 0 0 0 1 1 1 1 1 1 1 1 2 2 2 3 3 3 3 4 4 4 4 5 5 6 6 6 7 7 8 8 8 8 8 8 9 9 10 10 10 10
2 2 2 2 1 1 1 1 1 1 1 1 1 1 0 0 0 0 -0 -0 -0 -0 -0 -0 -0 -0 -0 0 0 0 0 0 1 1 1 1 1 1 1 1 2 2 3 3 3 3 3 4 4 4 5 5 5 6 6 7 7 7 8 8 8 8 8 8 9 9 10 10 10
2 2 2 1 1 1 1 1 1 1 1 1 1 1 1 0 0 0 -0 -0 -0 -0 -0 -0 -0 -0 -0 0 0 0 0 1 1 1 1 1 1 1 1 1 2 2 2 2 3 3 3 3 4 4 4 5 5 5 6 6 6 7 7 8 8 8 8 8 9 10 10 10 10
2 2 2 1 1 1 1 1 1 1 1 1 1 1 1 0 -0 -0 -1 -1 -1 -1 -0 -0 -0 -0 -0 0 0 0 0 1 1 1 1 1 1 1 1 1 2 2 2 2 3 3 3 3 4 4 4 5 5 5 5 6 6 6 7 7 8 8 8 8 9 10 10 10 9
2 2 2 1 1 1 1 1 1 1 1 1 1 0 0 -0 -1 -1 -1 -1 -1 -1 -1 -0 -0 -0 -0 0 0 0 1 1 1 1 1 1 1 1 1 1 1 2 2 2 2 3 3 3 3 4 4 4 5 5 5 5 6 6 7 7 8 8 8 8 9 10 10 10 9
1 2 2 2 2 1 1 1 1 1 1 0 0 0 -0 -1 -1 -1 -1 -1 -1 -1 -1 -0 -0 -0 -0 0 0 0 0 1 1 1 1 1 1 1 1 1 1 2 2 2 2 3 3 3 3 4 4 4 4 5 5 5 6 6 7 7 7 7 7 8 9 10 10 10 9
1 1 2 2 2 1 1 1 1 1 0 0 0 -0 -0 -1 -1 -1 -1 -1 -1 -1 -1 -1 -0 -0 -0 0 0 0 0 1 1 1 1 1 1 1 1 1 2 2 2 2 2 3 3 3 4 4 4 4 4 4 5 5 5 6 6 7 7 7 7 8 9 10 9 9 9
1 1 1 1 1 1 1 1 1 0 0 -0 -0 -0 -0 -1 -1 -1 -1 -1 -1 -1 -1 -1 -0 -0 0 0 0 0 1 1 1 1 1 1 1 1 1 1 2 2 2 2 2 2 3 3 4 4 4 4 4 4 4 5 5 6 6 7 6 6 7 8 9 9 9 8 8
1 1 1 1 1 1 1 1 1 0 0 -0 -0 -0 -0 -1 -1 -1 -1 -1 -1 -1 -1 -0 -0 0 0 0 1 1 1 1 1 1 1 1 1 2 2 2 2 2 2 2 2 2 3 3 4 4 4 4 4 4 4 4 5 5 6 6 6 6 7 7 8 9 8 8 8
1 1 1 1 1 1 1 1 0 0 0 -0 -0 -0 -0 -1 -1 -1 -1 -1 -1 -1 -0 -0 0 0 0 1 1 1 1 1 1 1 1 2 2 2 2 2 2 2 2 2 2 3 3 3 4 4 4 4 4 4 4 4 5 5 6 6 6 6 6 7 8 8 8 7 7
1 1 1 1 1 1 1 1 0 0 0 -0 -0 -0 -0 -1 -1 -1 -1 -1 -1 -1 -0 -0 0 0 0 1 1 1 1 1 1 1 2 2 2 2 2 2 2 2 2 2 2 3 3 3 4 4 4 4 4 4 4 4 4 5 5 6 6 6 6 7 7 7 7 7 7
1 1 1 1 0 0 0 0 0 0 0 -0 -0 -0 -0 -1 -1 -1 -1 -1 -1 -0 -0 -0 0 0 1 1 1 1 1 1 1 2 2 2 2 2 2 2 2 2 2 2 3 3 3 4 4 4 4 4 4 4 4 4 4 5 5 5 5 6 6 7 7 7 7 7 7
1 0 0 0 0 0 0 0 0 0 0 -0 -0 -0 -1 -1 -1 -1 -1 -1 -1 -0 -0 0 0 0 1 1 1 1 1 1 1 2 2 2 2 2 2 2 2 2 2 3 3 3 3 4 4 4 4 4 4 4 4 4 4 4 5 5 5 6 6 6 6 6 6 7 7
1 0 0 0 0 0 0 0 0 -0 -0 -0 -0 -0 -1 -1 -1 -1 -1 -1 -1 -0 -0 0 0 1 1 1 1 1 1 1 1 1 2 2 2 2 2 2 2 3 3 3 3 3 4 4 4 4 4 4 4 3 3 4 4 4 5 5 5 5 6 6 6 6 6 6 6
0 0 0 -0 -0 -0 -0 0 -0 -0 -0 -0 -0 -0 -0 -0 -1 -1 -1 -1 -1 -0 -0 0 0 0 1 1 1 1 1 1 1 1 2 2 2 2 2 3 3 3 3 3 3 4 4 4 4 4 4 4 4 3 3 4 4 4 4 5 5 5 5 6 6 6 5 5 6
0 0 -0 -0 -0 -0 -0 -0 -0 -0 -0 -0 -0 -0 -0 -0 -1 -1 -1 -1 -1 -0 -0 -0 0 0 0 1 1 1 1 1 1 1 2 2 2 2 3 3 3 3 3 3 3 4 4 4 4 5 4 4 3 3 3 3 4 4 4 4 5 5 5 5 5 5 5 5 5
0 0 -0 -0 -0 -0 -0 -0 -0 -0 -0 -0 -0 -1 -1 -1 -1 -1 -1 -1 -1 -0 -0 -0 0 0 0 1 1 1 1 1 1 1 2 2 2 2 3 3 3 3 3 3 4 4 4 4 5 4 4 3 3 3 3 3 3 3 4 4 4 4 5 5 5 5 5 5 5
0 0 -0 -0 -0 -0 -0 -0 -0 -0 -0 -0 -1 -1 -1 -1 -1 -1 -1 -1 -1 -0 -0 -0 -0 0 0 1 1 1 1 1 1 1 2 2 2 2 3 3 3 3 4 4 4 4 4 5 4 4 4 3 3 3 3 3 3 3 3 4 4 4 4 5 5 5 5 5 5
0 0 -0 -0 -0 -0 -0 -0 -0 -0 -1 -1 -1 -1 -1 -1 -1 -1 -1 -1 -1 -0 -0 -0 -0 0 0 1 1 1 1 1 1 1 2 2 2 3 3 3 3 4 4 4 4 5 5 4 4 3 3 3 2 3 3 3 3 3 3 3 3 4 4 4 5 5 5 5 5
0 0 -0 -0 -0 -0 -0 -0 -0 -1 -1 -1 -1 -1 -1 -1 -1 -1 -1 -1 -1 -0 -0 -0 -0 0 0 0 1 1 1 1 1 2 2 2 3 3 3 4 4 4 4 4 4 4 4 4 3 3 2 2 2 2 2 2 2 3 3 3 3 3 4 4 4 4 4 5 5
1 0 -0 -0 -0 -0 -0 -0 -0 -1 -1 -1 -1 -1 -1 -1 -1 -1 -1 -1 -1 -0 -0 -0 -0 0 0 0 1 1 1 1 1 2 2 3 4 4 4 4 4 4 4 4 4 4 3 3 3 2 2 2 2 2 2 2 2 2 2 3 3 3 3 4 4 4 4 4 4
1 0 -0 -0 -0 -0 -0 -0 -0 -1 -1 -1 -1 -1 -1 -1 -1 -1 -1 -1 -1 -1 -0 -0 -0 -0 0 0 1 1 1 1 1 2 2 3 4 4 4 3 3 3 3 3 3 3 3 3 2 2 2 2 2 2 2 2 2 2 2 2 2 2 3 3 3 3 3 3 4
1 0 0 -0 -0 -0 -0 -0 -1 -1 -1 -1 -1 -1 -1 -1 -1 -1 -1 -1 -1 -1 -0 -0 -0 -0 0 0 1 1 1 1 1 2 2 3 3 3 3 3 3 3 3 2 2 2 2 2 2 1 1 1 1 2 2 2 2 2 2 2 2 2 2 2 2 2 2 3 3
1 1 0 -0 -0 -1 -1 -1 -1 -1 -1 -1 -1 -1 -1 -1 -1 -1 -1 -1 -1 -1 -0 -0 -0 -0 0 0 1 1 1 2 2 2 2 2 2 3 3 2 2 2 2 2 2 2 2 1 1 1 1 1 1 1 1 2 2 2 2 2 2 2 2 2 2 2 2 2 3
1 1 0 0 -0 -1 -1 -1 -1 -1 -1 -1 -1 -1 -1 -1 -1 -1 -1 -1 -1 -0 -0 -0 -0 -0 -0 0 0 1 1 2 2 2 2 2 2 2 2 2 2 2 2 2 2 2 1 1 1 1 1 1 1 1 1 1 1 1 1 1 1 1 1 1 1 1 1 2 2
0 0 0 0 -0 -1 -1 -1 -1 -1 -1 -1 -1 -1 -1 -1 -1 -1 -1 -1 -0 -0 -0 -0 -0 -0 -0 -0 0 1 1 1 2 2 2 2 2 2 2 2 2 2 2 2 2 1 1 1 1 1 1 1 1 1 1 1 1 1 1 1 1 1 1 1 1 1 1 1 2
0 0 0 -0 -0 -0 -1 -1 -1 -1 -1 -1 -1 -1 -1 -1 -1 -1 -1 -1 -0 -0 -0 -0 -0 -0 -0 -0 0 0 1 1 1 1 2 2 2 2 2 2 2 2 2 2 1 1 1 1 1 1 1 1 1 1 1 1 1 1 1 1 1 1 1 2 2 2 2 2 1
Height
766 766 765 764 764 763 762 761 760 759 758 757 756 754 753 752 751 749 748 747 746 745 744 743 742 741 740 738 737 736 735 733 732 731 730 728 727 727 726 725 724 723 722 721 719 718 717 716 715 714 713 713 713 712 712 711 709 707 706 704 702 701 701 702 702 702 701 699 698
765 764 764 763 762 762 761 760 759 758 757 756 755 754 752 751 750 748 747 746 745 744 743 742 741 740 739 738 737 736 734 733 732 730 729 728 727 726 725 724 723 722 721 720 718 717 716 715 714 714 713 712 712 712 711 709 708 707 705 704 702 701 701 702 702 701 700 698 697
764 763 762 762 761 761 760 759 758 757 756 755 754 752 751 750 749 747 746 745 744 743 742 741 739 738 737 737 735 734 733 732 731 730 728 727 726 725 724 723 722 721 720 719 717 717 716 715 714 713 713 712 712 711 709 708 707 706 705 704 703 702 702 703 702 701 699 698 696
762 762 761 761 760 759 759 758 757 756 755 754 753 751 750 749 747 746 745 743 742 742 741 740 738 737 736 735 734 733 732 731 730 729 727 727 725 724 723 722 722 720 719 718 717 716 715 714 713 713 712 712 711 710 708 707 707 706 705 704 703 703 703 703 702 701 699 697 696
762 761 760 759 758 758 757 756 756 755 754 752 752 750 749 747 746 745 744 742 742 741 740 739 737 736 735 734 733 732 731 730 729 728 727 725 724 723 722 721 720 719 718 717 716 715 714 713 713 712 711 711 710 708 707 707 706 706 705 704 703 703 703 703 702 700 698 696 695
760 759 758 757 757 756 755 754 754 753 752 751 750 749 747 746 745 744 743 742 740 739 738 737 736 735 734 733 732 731 730 729 728 727 725 724 723 722 721 720 719 718 717 716 715 714 713 713 712 711 710 710 708 707 706 706 706 705 704 703 703 702 702 702 701 699 697 694 693
759 758 757 756 756 755 754 753 752 752 751 750 748 747 746 745 744 743 742 740 739 738 737 736 735 734 733 732 731 730 729 727 726 725 724 723 722 721 720 719 718 717 716 715 714 713 712 712 711 710 709 708 707 706 705 705 704 704 703 702 702 701 701 700 699 697 695 693 692
757 757 756 755 754 753 752 751 751 750 749 748 747 746 745 743 742 741 740 739 738 737 736 735 734 733 732 731 730 729 727 726 725 724 722 722 720 719 719 718 717 716 715 714 713 712 711 711 710 709 707 707 706 704 703 703 703 702 702 701 700 699 698 697 697 695 693 692 692
756 755 754 753 752 752 751 750 749 748 747 746 745 744 743 742 741 740 739 738 737 736 735 734 733 732 731 730 729 728 726 725 724 722 721 720 719 718 717 717 716 715 714 713 712 711 710 709 708 707 706 705 704 703 702 701 701 701 701 700 699 697 697 696 695 694 693 692 692
755 753 752 752 751 750 749 748 747 746 745 744 743 742 742 741 739 738 737 736 735 734 733 732 732 731 730 729 728 727 725 724 722 721 720 719 717 717 716 715 714 713 712 712 711 710 709 708 707 706 705 704 703 702 701 700 700 700 699 698 697 696 695 694 694 693 692 692 692
753 752 751 750 750 749 748 747 746 745 743 742 742 741 740 739 738 737 736 735 734 733 732 731 731 730 728 727 726 725 724 723 721 720 718 717 716 715 715 714 713 712 711 710 710 709 707 706 705 704 703 702 702 701 700 699 698 698 698 697 696 695 694 693 693 692 692 692 692
752 751 750 749 748 747 747 746 744 743 742 741 740 739 738 737 736 735 735 734 733 732 731 730 729 728 727 726 725 724 723 721 720 719 717 716 715 714 713 712 712 711 710 709 709 708 707 705 704 703 702 701 701 700 699 698 697 697 697 696 696 695 693 693 692 692 692 691 691
751 749 748 747 747 746 745 744 743 742 740 739 738 737 737 736 735 734 733 732 731 730 729 728 728 727 726 724 723 722 722 720 719 717 716 715 713 712 712 711 710 710 709 708 707 707 706 704 703 702 701 700 699 699 698 697 697 696 696 695 695 694 693 692 692 692 691 691 691
749 748 747 746 745 744 743 742 741 740 739 738 737 736 736 735 734 733 732 731 730 729 728 727 726 725 724 723 722 721 720 719 717 716 715 713 712 711 710 709 709 708 708 707 707 706 705 703 702 701 700 699 698 698 697 697 696 695 694 694 694 693 692 692 692 691 691 691 691
748 747 746 745 744 743 742 741 740 739 737 737 736 735 734 733 732 732 731 730 729 728 727 726 725 723 722 722 721 720 719 718 716 715 713 712 711 710 709 708 707 707 706 706 705 704 703 702 702 701 699 698 697 697 696 695 694 693 692 692 692 692 692 692 691 691 691 691 691
747 745 744 743 742 741 741 740 739 737 736 735 734 734 733 732 731 731 730 729 727 727 726 724 723 722 721 720 719 719 717 716 715 713 712 711 709 708 707 707 706 705 704 704 703 703 702 701 700 699 698 697 696 695 694 693 692 692 691 691 691 691 692 691 691 691 690 691 691
745 744 743 742 741 740 739 738 737 736 735 734 733 732 732 731 730 729 728 727 727 725 724 723 722 721 720 719 718 717 716 715 713 712 711 709 708 707 706 705 704 703 703 702 702 701 700 699 699 698 697 696 695 694 692 692 691 690 689 689 689 690 691 691 691 690 690 690 690
744 743 742 740 739 738 737 736 736 735 733 732 732 731 731 730 729 728 727 726 725 724 723 722 721 720 719 717 717 716 715 714 712 711 709 708 707 706 704 703 702 702 701 700 700 699 698 697 697 696 695 694 693 692 691 690 689 688 688 687 688 689 690 690 690 689 689 689 689
743 742 740 739 737 736 735 734 734 733 732 731 730 729 729 728 727 726 725 724 724 723 722 721 719 718 717 716 715 715 714 712 711 709 708 707 705 704 703 702 701 700 699 699 698 697 697 696 695 694 693 692 691 690 689 688 687 687 687 687 687 688 689 689 689 689 689 689 689
741 740 739 737 736 735 734 733 732 731 730 729 729 728 727 726 725 724 724 723 722 722 721 719 718 717 716 715 714 713 712 711 710 708 707 705 704 702 701 700 699 698 698 697 697 696 695 694 693 692 691 690 689 688 688 687 686 686 686 686 687 687 688 688 688 688 688 688 688
740 738 737 736 735 733 732 731 730 729 729 728 727 726 725 724 723 723 722 721 721 720 719 718 717 715 714 713 712 711 710 709 708 707 705 704 702 701 700 699 698 697 696 695 695 694 693 692 692 690 689 688 687 687 686 686 685 684 685 685 686 687 687 687 687 687 687 687 687
738 737 736 734 733 732 730 729 728 728 727 726 725 725 724 723 722 721 720 720 719 718 717 716 715 714 713 712 711 710 709 708 707 705 704 702 701 700 698 697 697 695 694 693 693 692 692 691 690 689 688 687 686 685 685 684 684 683 684 684 685 686 686 687 686 687 687 687 687
737 735 734 732 731 730 729 728 727 726 725 725 724 723 722 722 721 720 719 718 717 717 716 715 713 712 712 711 710 709 707 706 705 703 702 701 700 698 697 696 695 694 693 692 691 691 690 689 688 687 687 686 685 684 684 683 683 683 683 684 685 685 686 686 686 686 686 687 687
735 733 732 731 729 728 727 726 725 724 723 723 722 722 721 720 719 718 717 717 716 715 714 713 712 711 710 709 708 707 706 705 703 702 701 699 698 697 696 695 693 692 691 690 690 689 689 688 687 686 685 685 684 683 683 683 682 682 682 683 684 685 685 685 685 685 686 686 686
733 732 730 729 728 727 725 724 723 722 722 721 721 720 719 718 718 717 716 715 714 714 713 712 711 710 709 708 707 706 705 703 702 700 699 698 697 695 694 693 692 691 690 689 688 687 687 687 686 685 684 684 683 683 682 682 682 682 682 683 684 684 684 684 684 685 685 685 685
732 730 728 727 726 725 724 722 722 721 720 719 719 718 718 717 716 715 715 714 713 712 712 711 710 709 708 707 706 704 703 702 700 699 697 696 695 694 693 692 690 689 688 687 687 686 686 686 685 685 684 683 683 682 682 682 682 682 682 683 683 683 683 683 683 684 685 684 684
730 728 727 725 724 723 722 721 720 719 718 718 717 717 716 716 715 714 713 712 712 711 710 709 708 707 706 705 704 703 702 700 699 697 696 695 693 692 691 690 689 688 687 686 685 685 684 684 684 684 683 683 683 682 682 682 682 682 682 682 682 682 682 682 683 684 684 684 684
728 727 725 724 722 721 720 719 718 717 717 716 716 715 715 714 713 712 712 711 710 710 709 708 707 706 705 704 702 701 700 699 697 696 695 693 692 691 689 688 687 686 685 684 684 684 683 683 683 682 682 682 682 682 682 681 681 681 681 682 682 682 682 682 683 683 684 683 683
726 725 723 722 721 719 718 717 717 716 715 714 714 714 713 713 712 711 710 710 709 708 707 707 706 705 704 702 701 700 698 697 696 694 693 692 690 689 688 687 686 685 684 683 683 682 682 682 682 682 682 681 681 681 681 681 681 681 681 681 681 682 682 682 683 683 683 683 683
725 723 722 720 719 717 717 716 715 714 713 713 712 712 712 711 710 710 709 708 707 707 706 705 704 703 702 701 700 698 697 696 694 693 691 690 688 687 686 685 684 683 682 682 682 682 681 681 681 681 681 681 681 681 681 681 681 681 681 681 681 682 682 682 683 683 684 684 684
723 722 720 718 717 716 715 714 713 712 712 712 711 711 710 709 709 708 707 707 706 705 705 704 703 702 701 700 698 697 696 694 693 691 690 688 687 686 684 683 683 682 681 681 681 680 680 680 680 680 680 680 681 681 681 681 681 681 681 681 681 682 682 682 682 683 684 684 684
721 720 718 717 716 714 713 712 712 711 710 710 709 709 708 708 707 707 706 705 705 704 703 703 702 701 700 698 697 696 695 693 691 690 688 687 685 684 683 682 681 680 680 679 679 679 679 679 679 680 680 680 680 681 681 681 681 680 681 681 681 682 682 682 682 683 684 684 684
720 718 717 716 714 713 712 711 710 709 709 708 707 707 706 706 705 705 704 704 703 703 702 702 701 700 698 697 696 695 693 692 690 688 687 685 684 682 681 680 680 679 678 678 678 678 678 678 679 679 680 680 680 680 680 680 680 681 681 681 682 682 682 682 682 682 683 684 683
718 717 715 714 712 712 710 709 709 708 707 706 706 705 705 704 704 703 703 702 702 702 701 700 700 699 697 697 695 694 692 691 689 687 686 684 682 681 680 679 679 678 677 677 677 677 678 678 678 679 679 680 680 680 680 680 680 680 681 681 681 682 681 681 682 682 683 684 683
717 715 714 712 711 710 709 708 707 706 706 705 704 703 703 702 702 702 702 701 701 700 700 699 698 697 697 696 694 693 692 690 689 687 685 683 681 680 680 679 679 678 677 677 677 678 678 678 678 679 679 680 680 680 680 680 680 680 680 680 681 681 681 681 682 683 684 684 684
715 714 712 711 710 709 708 707 706 705 704 703 702 702 701 701 701 701 700 700 700 699 698 698 697 697 696 695 694 693 692 690 688 687 685 683 682 681 680 679 679 678 678 678 678 678 678 678 678 679 679 680 680 680 680 680 680 680 680 680 680 681 681 682 682 683 684 684 685
714 712 711 709 708 707 706 706 705 704 702 702 701 700 700 700 699 699 699 699 698 698 697 697 696 696 695 694 693 692 691 690 688 687 685 684 682 681 680 680 679 679 679 679 679 679 679 679 679 679 680 680 680 679 679 679 679 679 680 680 681 681 682 683 684 685 685 686 686
712 711 709 708 707 706 705 704 703 702 701 700 699 699 699 698 698 698 698 698 697 697 696 696 695 695 694 693 692 691 690 689 688 687 686 684 683 682 682 681 680 680 680 680 679 679 680 680 680 680 680 680 680 680 680 680 680 680 680 681 682 683 683 684 685 686 687 687 687
711 709 708 707 705 704 703 702 702 701 700 699 698 698 697 697 697 697 697 697 696 696 695 695 694 693 693 692 692 691 690 689 688 687 686 685 684 683 682 682 681 681 680 680 680 680 680 681 681 681 681 680 680 680 680 680 680 680 681 682 683 684 685 686 687 687 688 688 688
709 708 707 705 704 702 702 701 700 699 698 698 697 697 696 696 696 696 696 695 695 695 694 694 693 692 692 692 691 690 689 689 688 687 686 685 684 684 683 682 682 682 681 681 681 681 681 681 681 681 681 680 681 681 681 681 681 681 682 683 684 685 686 687 687 688 689 689 689
707 706 705 703 702 701 700 699 698 697 697 697 696 695 695 695 695 695 694 694 694 693 693 693 692 692 691 691 690 690 689 688 688 687 686 685 685 684 683 683 683 682 682 682 682 682 681 681 681 681 681 681 681 682 682 682 682 682 682 683 684 685 686 687 688 689 690 691 691
Wind_Speed
16 16 15 15 15 14 14 13 13 13 13 13 14 14 14 14 15 15 15 14 13 13 14 14 14 15 16 16 17 18 20 20 20 20 19 19 18 18 17 17 17 17 17 18 18 17 16 15 14 14 14 15 15 15 15 16 15 14 12 10 9 9 9 10 10 9 9 8 9
17 16 16 16 16 15 14 14 14 14 14 14 14 15 15 16 16 16 15 15 14 14 15 15 15 16 16 17 18 19 19 19 19 19 19 19 18 18 17 17 17 17 18 18 18 17 16 15 15 14 15 15 15 15 15 15 15 15 13 11 9 9 9 9 10 10 9 9 9
18 17 16 15 15 15 14 14 14 14 14 15 15 16 16 16 16 16 16 16 16 16 16 16 17 17 18 19 19 19 19 19 19 19 19 18 18 18 17 17 17 18 18 18 18 17 16 15 15 15 15 15 15 15 15 15 16 16 15 12 9 8 8 8 8 8 8 8 9
19 18 17 16 15 15 15 14 15 15 16 16 16 17 17 17 17 17 17 17 17 16 16 16 17 17 18 19 20 19 19 18 18 18 18 18 18 18 18 18 18 18 18 18 18 17 16 15 15 15 15 15 15 15 15 15 15 15 15 14 11 8 7 7 7 7 7 7 7
20 19 18 17 16 16 16 16 16 16 17 17 17 17 17 17 17 17 17 16 16 16 16 17 18 19 20 20 20 20 19 19 18 18 18 18 18 18 18 18 18 17 17 18 18 17 16 16 15 15 15 15 15 14 14 14 14 14 15 15 13 10 7 6 6 6 5 6 6
20 20 20 19 18 17 17 17 17 16 17 17 17 17 17 17 17 17 16 17 17 18 18 18 19 19 20 20 20 20 19 19 18 18 18 18 18 18 18 18 18 17 17 17 17 17 16 16 15 15 15 15 15 14 14 13 13 13 14 14 14 12 9 6 5 5 5 6 7
20 20 20 20 19 18 18 17 17 16 17 17 18 18 18 18 18 18 19 19 19 19 19 19 19 19 19 20 20 20 20 19 19 18 18 18 18 18 18 18 18 17 17 17 17 17 16 16 15 15 15 15 14 14 14 13 13 13 13 14 15 14 11 8 6 5 5 6 7
22 22 21 21 21 20 19 18 17 17 17 17 18 19 19 19 20 20 20 20 20 19 19 18 18 19 19 20 21 21 21 20 20 19 19 18 18 18 18 18 18 18 17 17 17 16 16 16 15 15 15 15 14 14 13 13 13 13 14 14 15 14 12 10 7 5 4 5 6
23 23 22 22 22 21 20 19 19 18 18 18 19 20 20 20 20 20 20 20 19 19 18 18 19 19 20 20 21 21 21 21 20 20 19 18 18 18 18 18 18 18 17 17 17 17 17 16 16 15 15 14 14 14 14 13 13 13 14 14 15 14 12 10 9 7 5 4 4
23 22 22 21 21 21 20 20 20 20 20 20 20 21 21 20 20 20 19 19 19 18 18 19 19 20 20 20 21 21 21 20 20 20 19 19 18 18 18 18 18 18 18 17 17 17 17 17 16 16 15 15 15 15 15 14 13 13 14 14 14 14 12 11 10 8 7 5 4
23 22 21 21 20 20 20 20 20 20 20 20 20 20 20 20 19 19 19 18 18 19 19 19 19 20 20 21 21 21 20 20 20 19 19 19 18 18 18 18 18 18 18 18 18 17 17 16 16 16 16 16 16 16 15 14 13 13 14 14 13 13 13 12 11 10 9 7 6
23 22 21 21 20 20 20 20 20 20 20 20 20 19 19 19 19 18 18 18 19 19 20 19 19 19 20 20 21 20 20 20 20 20 20 19 19 19 19 18 18 18 18 18 17 16 16 15 16 16 17 17 16 15 14 13 12 12 13 13 13 13 13 13 12 12 10 9 8
22 22 21 21 20 20 20 20 20 19 19 19 19 19 18 18 18 17 18 18 19 19 19 18 18 19 20 20 20 20 20 20 20 20 20 20 20 20 19 19 18 18 18 17 16 16 16 16 17 18 18 18 17 15 14 13 12 12 12 12 12 12 12 13 13 13 12 11 9
22 22 21 20 19 19 19 19 19 18 18 18 18 18 17 17 16 16 16 17 18 18 18 18 19 19 20 20 20 20 20 20 20 21 21 21 21 20 19 19 18 18 17 17 17 16 17 17 18 18 18 18 17 16 15 13 12 11 11 11 11 11 12 13 13 13 13 12 10
23 22 21 20 19 19 19 19 18 18 18 17 17 17 16 16 15 15 16 16 17 18 18 18 19 19 20 20 20 20 21 21 21 21 21 21 21 20 20 19 19 18 18 18 18 17 18 18 18 18 18 18 18 17 16 14 13 12 11 11 11 11 11 13 13 13 12 12 11
23 22 21 20 19 19 18 18 17 17 17 16 16 15 15 15 15 15 15 16 17 17 17 18 19 19 19 19 19 20 20 21 21 21 20 20 20 20 19 19 19 19 18 19 19 18 18 18 18 18 18 17 18 17 16 15 13 12 12 12 13 13 13 13 12 12 11 12 11
23 22 21 20 19 19 18 18 17 16 16 16 15 15 14 14 14 15 15 16 16 17 17 18 19 19 19 20 19 19 19 20 20 19 19 20 20 20 19 19 19 19 19 19 20 19 19 19 19 19 18 17 17 17 17 15 14 13 12 12 13 14 14 13 12 10 10 11 11
23 22 21 20 19 19 19 19 18 18 17 17 16 15 14 14 15 15 16 16 17 17 18 19 19 19 19 20 20 19 19 19 19 19 20 20 20 21 21 21 20 20 20 20 20 20 20 21 20 20 18 17 17 17 17 16 14 13 12 12 13 14 14 13 11 10 10 10 11
23 22 21 20 19 19 19 19 19 18 18 17 16 15 15 16 16 17 17 17 17 17 18 19 19 19 19 20 20 20 20 20 20 21 21 21 22 22 22 22 22 21 21 21 21 21 21 21 21 20 19 18 18 17 17 15 14 13 12 12 13 14 14 12 11 10 10 10 10
23 22 21 21 20 19 19 19 19 18 18 18 17 17 17 17 17 18 18 18 18 18 18 19 19 19 19 20 20 21 21 21 21 21 22 22 22 22 22 22 22 21 21 21 21 21 21 21 21 20 19 18 18 18 16 15 13 12 12 12 13 14 13 12 11 11 11 11 10
23 22 21 21 20 20 19 19 19 19 18 18 18 18 18 18 17 17 18 18 18 18 19 19 20 20 20 20 21 21 21 21 21 21 22 22 22 22 22 22 22 21 21 21 21 21 21 21 21 20 19 18 18 17 16 14 13 12 12 12 13 14 13 12 11 11 11 11 10
23 22 21 21 20 20 19 19 19 19 19 18 19 19 18 18 17 17 17 18 18 18 19 19 20 20 20 20 21 21 21 21 21 22 22 22 22 22 22 22 21 21 21 21 21 21 21 21 21 20 19 18 18 17 16 14 13 12 12 12 13 13 12 11 11 11 11 10 9
22 22 21 21 21 20 20 19 19 19 18 18 18 18 18 17 17 17 17 17 18 18 19 19 19 19 19 20 20 21 22 22 22 22 22 22 22 22 22 22 21 21 21 21 21 21 21 20 20 19 18 17 17 16 15 14 13 12 12 12 13 12 11 11 11 11 11 10 8
22 22 21 20 20 20 20 19 19 19 19 19 19 18 18 17 16 16 17 17 18 18 18 18 18 18 18 19 20 21 21 22 22 22 22 22 22 22 22 22 21 21 21 21 21 20 20 19 19 18 17 16 15 15 14 14 13 12 12 12 12 12 11 10 11 11 11 10 9
22 22 21 20 20 20 19 19 18 19 19 19 18 18 17 17 16 16 16 17 17 18 18 18 18 18 18 19 19 20 20 21 21 21 22 22 22 22 22 21 21 20 20 20 21 21 20 20 19 18 17 15 15 14 14 14 13 12 12 13 12 12 11 11 11 11 11 11 10
22 22 21 21 20 20 19 19 19 19 19 19 18 18 18 18 17 16 17 17 18 18 17 17 17 17 18 18 18 19 19 19 19 20 20 21 21 21 21 21 20 19 19 20 20 20 20 20 19 18 16 15 14 13 13 13 13 13 13 13 12 12 11 11 11 11 11 12 12
22 22 21 20 20 19 19 19 19 19 19 19 19 19 18 18 16 16 16 17 17 17 17 16 16 16 17 17 17 18 18 18 18 19 19 20 20 21 20 20 19 19 19 19 20 20 20 20 19 18 16 15 13 12 12 12 13 13 13 13 12 12 12 12 12 12 12 12 13
22 21 21 20 20 19 19 19 19 18 18 18 18 18 17 16 16 16 16 16 16 16 16 15 15 15 15 15 16 17 17 18 18 19 19 19 20 20 20 19 18 18 18 19 19 19 20 19 18 16 16 15 13 12 12 12 12 12 12 12 12 12 12 13 13 12 12 13 13
22 21 20 20 20 20 19 19 19 18 18 18 18 17 16 16 16 16 16 16 16 16 15 15 14 14 14 15 16 17 17 18 19 19 19 19 19 19 19 19 18 18 19 19 19 19 19 18 16 15 15 15 13 12 11 11 11 11 12 12 12 12 13 13 13 13 13 13 14
21 20 20 19 20 19 19 19 19 18 18 17 17 16 16 16 16 16 16 16 16 16 15 15 14 15 15 16 16 17 18 18 19 19 19 19 19 19 19 18 18 18 19 19 19 19 18 16 15 14 14 14 13 13 12 12 11 12 12 12 13 13 13 14 14 13 13 13 13
21 20 20 19 19 19 18 18 18 18 17 16 16 16 16 16 16 16 16 16 16 16 16 15 15 16 16 17 17 17 18 19 19 19 19 19 19 18 18 17 17 18 18 19 19 18 16 14 13 13 13 13 13 13 13 13 13 13 13 13 14 14 14 14 14 13 13 12 13
20 20 19 19 19 19 18 18 17 17 17 16 16 16 16 16 16 16 16 16 16 16 16 16 16 16 16 16 16 17 17 18 19 19 19 19 19 19 18 17 17 17 18 18 17 15 13 12 11 12 12 13 13 14 14 14 14 14 14 14 14 14 14 14 14 13 13 12 13
20 19 19 19 19 19 18 17 17 16 16 16 16 17 17 17 17 17 16 16 15 15 15 15 15 15 15 15 15 16 17 18 18 18 18 18 18 18 17 16 15 14 14 12 11 10 9 10 11 11 11 12 13 14 14 14 14 14 14 14 14 14 14 14 14 13 13 13 13
19 19 19 19 19 18 18 17 16 16 16 16 17 17 17 17 17 16 16 15 15 14 14 14 14 14 14 14 15 16 16 16 16 15 16 16 15 14 12 10 7 5 4 4 6 7 9 10 9 9 10 11 12 13 13 14 14 14 15 15 14 14 14 14 14 14 14 13 14
19 19 19 19 19 18 17 17 16 16 16 16 16 16 16 16 16 16 16 15 15 14 14 14 14 14 13 13 14 14 14 13 13 13 13 11 7 3 0 3 5 7 7 7 7 7 7 7 7 8 9 11 12 12 13 14 15 15 15 15 15 15 16 16 16 15 14 14 15
19 19 19 19 19 18 17 17 16 16 16 16 16 16 16 16 16 16 16 15 14 14 14 14 13 13 12 12 13 12 10 9 9 10 10 7 5 7 10 11 11 10 9 7 6 5 5 5 6 7 9 10 12 13 14 14 15 16 17 17 17 17 17 17 16 15 15 15 15
20 19 19 19 19 18 17 17 16 16 16 16 16 16 16 15 15 15 15 14 14 13 13 13 13 12 12 12 11 9 7 6 7 8 8 8 8 9 10 10 9 8 7 6 4 4 4 4 6 8 9 11 12 13 14 15 16 17 18 17 17 17 17 16 15 15 14 14 15
20 19 19 19 19 18 17 17 16 16 16 16 16 16 15 15 15 15 15 14 13 13 13 12 12 12 12 11 10 8 5 4 4 5 6 7 8 8 8 8 8 7 6 5 4 3 4 5 6 8 10 11 11 12 13 15 16 17 17 17 16 16 15 15 14 14 14 14 14
21 20 19 19 19 18 18 17 17 17 17 16 16 15 15 15 14 14 14 14 13 12 12 12 12 12 11 10 9 7 5 3 2 2 4 6 7 7 7 7 7 6 5 4 3 3 3 5 7 9 10 10 11 12 13 15 16 17 17 16 15 14 14 14 14 13 13 13 13
22 21 20 19 18 18 18 18 17 17 17 16 16 16 15 15 14 14 14 14 13 12 12 12 12 11 11 10 9 7 5 4 3 1 2 4 5 6 6 6 6 5 4 4 3 2 3 4 6 8 9 9 9 10 12 14 15 16 16 15 14 13 13 14 13 13 12 12 12
23 21 20 19 18 18 18 18 18 17 17 16 16 16 15 15 14 14 14 14 13 12 11 11 11 11 10 10 9 7 6 5 4 3 2 3 4 4 5 5 5 4 4 3 3 2 2 3 5 7 9 9 8 9 10 11 13 15 15 15 15 14 14 14 13 12 12 12 12
Wind_Direction
281 277 276 277 280 283 286 288 289 290 291 293 293 294 294 294 293 291 290 290 289 289 291 292 292 293 295 298 301 303 305 308 311 313 313 313 310 308 306 305 305 304 305 305 304 302 300 300 302 301 297 294 290 289 290 292 295 299 305 314 321 320 319 323 322 321 319 317 307
282 278 275 275 278 281 283 286 287 289 290 292 292 293 293 292 290 289 288 287 286 287 289 290 291 292 294 297 299 301 303 305 307 309 310 310 308 307 305 304 303 304 305 305 304 302 300 300 300 298 294 291 288 287 288 291 295 298 301 307 317 323 321 315 313 310 309 312 315
283 278 275 273 275 276 279 282 285 288 290 291 292 292 291 290 289 287 286 285 285 286 288 289 290 292 294 296 298 300 300 301 302 304 306 306 306 305 304 302 302 303 304 305 305 303 300 299 297 294 290 286 284 285 286 289 292 295 296 298 307 318 320 312 310 312 314 312 315
284 279 275 272 270 271 274 278 283 287 290 291 292 291 290 288 287 286 285 285 285 285 286 288 290 292 294 296 298 298 298 298 298 299 301 303 304 303 302 302 301 302 303 304 304 302 300 298 295 290 285 280 279 280 282 285 289 291 291 290 293 299 307 309 311 315 319 323 323
286 281 277 273 271 271 273 277 281 285 289 291 291 290 289 288 287 286 285 285 285 285 286 287 289 292 294 296 297 297 296 296 295 296 297 299 301 302 301 300 300 301 302 303 303 301 299 297 293 287 282 277 275 275 276 279 284 286 286 286 283 281 285 298 309 320 332 343 339
286 282 279 276 274 273 274 276 280 284 287 289 289 288 287 286 285 284 283 283 283 285 287 288 290 292 294 295 295 295 295 295 295 295 296 297 299 300 300 299 299 299 301 301 301 300 298 296 291 285 280 277 274 272 272 274 279 282 282 280 278 274 271 280 300 323 344 358 359
287 282 278 276 275 274 274 276 279 283 286 287 287 286 285 284 283 282 281 282 284 286 287 289 290 291 293 294 295 294 294 294 294 294 294 296 298 298 298 298 298 299 300 301 300 299 297 294 289 283 279 277 274 272 271 271 275 279 279 276 276 273 270 272 288 314 343 4 10
292 286 280 277 275 274 274 275 278 281 284 285 285 285 285 284 282 282 282 282 283 284 286 287 288 290 291 292 293 293 293 293 293 293 294 294 296 297 298 297 297 297 299 300 300 298 297 294 288 282 279 277 275 274 273 272 275 278 278 276 276 274 272 272 279 294 321 350 6
295 290 286 281 278 275 274 275 277 279 281 283 284 285 285 284 282 281 281 281 281 282 283 284 286 289 290 291 291 291 291 291 291 292 292 293 295 296 297 296 296 296 297 299 299 298 296 293 288 282 279 277 276 276 276 275 275 277 277 276 275 275 274 273 274 278 288 305 332
297 293 288 283 279 277 276 277 278 280 282 284 286 286 286 284 282 280 279 278 280 281 282 283 286 288 289 289 289 289 289 289 290 290 291 292 293 294 295 295 295 295 296 297 298 298 297 293 288 284 281 279 278 279 278 276 273 274 276 276 275 275 274 272 271 271 271 272 280
299 294 288 283 279 277 276 276 278 281 284 286 287 288 287 285 282 279 278 277 278 279 280 282 285 287 288 288 288 288 288 288 288 289 290 290 291 291 292 292 292 292 293 295 296 297 296 293 290 287 285 282 281 280 278 274 269 270 273 274 274 274 272 270 268 266 266 265 266
299 296 291 284 280 277 275 275 277 280 283 286 288 288 287 285 282 279 277 277 277 278 280 282 283 285 286 287 287 287 287 287 287 288 288 289 289 289 290 290 290 290 290 292 293 294 293 292 291 290 288 286 284 280 277 272 266 266 270 272 271 270 268 266 263 261 260 260 261
299 296 292 287 282 277 274 274 276 279 282 285 287 288 287 285 282 279 277 276 277 278 280 282 283 284 285 286 286 286 286 286 286 287 287 287 288 289 288 288 287 288 288 289 290 291 292 292 292 291 289 287 284 280 276 271 265 263 266 270 268 266 263 261 257 255 253 252 253
297 294 291 288 282 277 273 273 274 277 280 283 286 286 286 284 281 278 276 276 276 278 280 282 283 284 284 285 286 286 285 285 285 285 285 286 287 287 288 287 286 286 286 286 287 288 290 291 292 290 288 286 283 280 276 271 264 259 261 266 266 264 260 256 252 248 245 244 243
296 293 291 288 283 277 273 272 273 275 278 281 284 286 285 283 280 278 276 275 276 278 280 282 283 284 285 285 284 284 284 284 284 284 284 285 286 286 286 286 285 285 284 284 284 286 287 289 290 289 287 285 282 280 277 272 266 260 258 261 264 262 258 253 248 243 239 237 236
296 293 291 288 283 278 274 271 272 274 277 280 283 284 284 282 280 278 277 276 277 278 280 281 283 284 285 284 283 283 283 283 283 283 283 284 284 285 285 285 285 284 284 283 283 284 286 288 289 289 287 284 282 280 277 273 269 264 261 261 263 261 256 251 244 238 234 232 232
296 293 290 287 283 279 275 272 271 272 275 278 280 281 281 281 280 279 277 276 277 278 279 281 282 284 284 284 284 283 283 282 282 282 282 282 283 284 284 284 284 284 284 283 283 284 286 288 290 289 288 285 283 280 278 275 271 268 265 263 263 261 256 249 242 235 231 230 230
297 293 289 286 283 280 277 274 272 272 273 276 278 279 279 279 279 279 278 277 276 277 279 281 282 283 283 283 283 282 281 281 281 280 281 282 282 283 283 284 284 284 283 282 282 283 285 288 290 290 289 286 283 281 280 277 274 271 268 266 264 260 254 246 240 235 231 230 229
297 293 289 285 282 280 278 276 273 272 273 275 276 277 277 278 279 279 278 277 276 277 279 281 283 283 282 281 281 281 280 279 279 279 280 281 281 282 282 283 284 283 282 280 280 281 283 286 288 289 288 286 285 284 282 280 277 273 270 268 264 258 250 242 238 236 234 231 228
296 293 289 286 283 280 278 276 274 273 274 276 276 277 278 279 280 279 277 276 276 277 279 281 281 282 282 282 281 281 280 279 279 279 279 280 280 280 281 282 282 282 281 279 278 278 280 283 286 288 287 286 286 285 284 281 277 273 270 267 261 253 244 237 235 235 235 231 226
296 293 290 287 284 281 278 276 275 274 274 275 276 278 279 281 281 279 277 276 277 278 279 280 281 281 282 282 281 281 280 279 279 278 279 279 279 279 280 280 280 280 279 278 277 277 279 282 285 286 286 285 285 285 283 279 275 270 266 263 256 247 237 230 229 231 231 226 219
296 293 290 287 285 282 279 277 276 275 274 275 276 278 280 281 281 279 278 277 278 279 279 280 281 281 281 281 280 280 280 279 278 278 278 279 279 279 279 279 278 278 277 277 276 276 278 280 283 284 284 283 283 282 280 277 271 265 261 256 250 241 230 222 222 222 220 212 203
296 294 291 287 285 283 281 278 276 274 273 273 275 277 280 280 280 280 279 278 278 279 279 280 280 281 281 280 280 280 279 279 279 278 278 278 278 278 277 277 276 275 275 275 275 275 276 278 281 281 281 280 279 277 275 271 264 258 253 247 241 231 221 212 211 209 203 193 182
297 294 290 287 285 283 281 279 276 273 272 272 273 276 278 279 280 280 279 278 278 279 279 279 279 279 279 279 278 278 278 279 279 279 278 278 277 277 276 275 273 272 272 272 272 272 273 276 278 279 279 277 274 272 268 263 256 249 242 236 227 217 207 199 197 194 189 179 168
297 294 290 287 284 282 280 277 274 273 272 272 273 275 277 278 279 279 279 278 278 278 279 278 279 279 279 278 278 278 278 278 279 279 279 279 277 276 275 273 271 269 269 269 269 270 271 272 274 275 274 273 270 266 261 254 246 239 231 223 214 203 193 188 186 185 180 173 163
298 294 290 287 284 281 279 276 274 272 272 272 272 273 275 277 278 278 278 278 278 278 278 278 278 278 278 278 279 279 279 279 279 279 279 279 278 276 274 271 269 266 266 266 268 269 270 270 270 269 267 265 262 257 251 243 235 227 220 212 203 193 184 179 178 177 174 167 158
298 295 291 288 285 281 278 276 275 273 272 271 271 272 274 276 277 277 276 276 277 278 278 278 277 277 278 279 279 280 280 280 280 280 280 279 278 276 273 270 267 264 263 265 267 268 269 269 268 264 259 254 251 245 237 229 221 215 208 200 193 186 179 174 171 168 164 159 153
297 295 292 289 285 281 279 277 275 273 271 270 270 271 273 273 273 273 273 274 276 277 278 277 277 278 279 279 280 281 282 283 283 283 282 280 278 275 272 269 265 263 262 264 266 267 268 268 265 259 251 245 240 234 226 218 210 203 197 191 186 181 176 171 168 163 156 150 148
296 294 292 288 284 281 279 277 274 272 272 271 270 270 270 270 270 270 271 273 275 276 276 277 278 279 280 280 282 284 285 286 286 285 284 282 280 276 272 268 264 262 262 264 265 267 267 267 262 254 244 239 233 227 219 210 201 193 188 186 183 178 174 170 166 159 152 146 143
297 295 291 287 284 281 278 276 275 274 273 272 270 268 268 268 268 268 269 271 272 274 275 277 279 280 280 282 284 286 288 288 289 288 286 284 281 277 273 268 263 262 262 264 265 265 265 262 255 244 235 230 227 221 212 202 193 187 183 181 179 176 172 168 163 158 152 146 141
297 294 291 287 284 281 278 276 275 274 272 270 267 266 266 266 266 266 267 269 271 274 276 278 279 280 281 284 286 288 289 290 291 290 288 285 282 278 273 268 264 263 263 264 264 262 260 254 241 227 218 217 216 211 202 194 188 183 179 175 173 171 168 164 161 157 152 146 141
297 294 291 287 284 281 279 277 276 274 271 268 265 264 263 263 264 265 267 269 272 275 277 278 279 280 283 286 288 290 292 293 293 292 290 287 282 277 273 269 266 264 264 263 261 256 247 233 216 205 203 206 206 202 195 189 183 178 173 169 166 163 161 158 155 152 149 144 139
297 294 291 288 285 282 280 278 275 273 270 267 265 262 262 263 264 266 267 268 270 273 274 276 278 280 283 287 290 293 295 296 296 296 295 290 283 277 272 269 267 263 260 255 247 233 214 197 189 189 195 200 199 194 187 181 174 169 164 160 157 155 151 148 147 146 144 139 135
297 295 292 289 286 284 281 278 275 272 269 266 264 262 261 262 264 265 266 267 269 271 272 274 276 279 283 287 291 294 297 300 302 304 303 297 287 277 270 268 264 252 227 201 183 174 172 175 179 185 192 195 189 180 172 165 159 154 150 147 145 142 140 138 137 137 135 133 130
298 296 293 291 288 285 282 278 275 271 268 265 263 262 261 262 262 262 264 266 269 270 271 273 276 279 283 287 291 294 297 303 310 316 318 314 300 277 194 83 85 94 105 115 127 140 155 169 180 189 192 186 173 161 152 146 141 138 135 132 129 127 126 126 126 126 126 125 124
299 296 293 291 289 286 282 278 274 270 267 264 262 261 261 261 261 262 264 266 268 268 269 272 275 278 281 284 288 292 299 312 323 331 339 357 52 87 89 83 81 82 87 97 112 131 154 172 187 193 188 174 157 145 137 132 128 124 122 118 116 115 115 115 116 117 118 118 118
301 297 293 290 288 286 282 279 274 270 266 263 261 261 261 261 261 262 262 264 264 265 268 271 274 277 279 282 284 288 302 328 341 349 4 32 63 78 81 78 75 73 74 80 99 126 151 172 188 188 178 160 145 136 130 125 121 117 113 109 107 106 107 107 107 109 111 114 116
303 299 293 289 286 284 282 278 273 268 265 263 261 261 261 261 260 260 260 260 260 261 265 269 273 276 277 278 278 282 298 332 358 14 26 42 56 68 74 75 72 67 64 69 85 115 146 167 181 178 166 149 139 132 128 124 120 115 110 106 103 102 102 101 102 103 105 111 115
303 300 294 288 284 282 279 276 272 267 264 262 261 260 259 259 257 258 259 259 257 258 262 267 271 274 275 274 272 273 283 299 324 37 56 59 63 68 72 74 73 67 61 62 77 111 146 165 172 168 158 145 137 133 130 125 120 116 112 109 106 103 101 99 98 97 99 104 110
302 299 294 289 283 280 277 273 270 266 263 261 259 258 257 256 256 257 259 259 256 255 258 264 269 273 273 270 266 265 268 272 266 232 120 98 90 84 78 74 74 74 72 71 81 115 149 160 164 161 154 143 139 137 133 128 123 119 116 113 111 108 104 99 97 94 94 95 98
300 298 294 289 283 279 275 271 268 265 262 258 256 255 256 256 256 257 258 257 255 254 255 260 266 270 270 266 261 257 256 255 247 222 177 144 126 108 92 78 73 77 83 86 94 115 140 149 156 158 155 147 144 144 141 134 127 123 120 119 116 112 107 102 99 97 95 93 90